Volver al catálogo

USA 120

ActivoMilitarLEO
NORAD 23907·PAYLOAD·🇺🇸 United States

Lanzado May 12, 1996 desde Vandenberg Space Force Base

Loading…

Próximos Pases (próximas 24 horas)

TLE

ActualizadoSource: Space-Track

Época: Sep 14, 2026, 11:14 UTC

1 23907U 96029B   26257.46860622  .00000606  00000-0  11521-3 0  9998
2 23907  63.3194 318.9225 0853553  51.2423 316.1785 13.46662601115671

Sigue USA 120 en tiempo real con AllMySat

Download on the App Store